Weather History for Middleton, WI

Change the Weather History Date:

Saturday, May 18, 2013

  Actual Average (KMSN) Record (KMSN)
Temperature  
Mean Temperature 66 °F 58 °F  
Max Temperature 79 °F 69 °F 91 °F (1934)
Min Temperature 52 °F 47 °F 28 °F (2002)
Degree Days  
Heating Degree Days 0 8  
Month to date heating degree days 184  
Since 1 July heating degree days 7191  
Cooling Degree Days 0 1  
Month to date cooling degree days 8  
Year to date cooling degree days 12  
Growing Degree Days 16 (Base 50)    
Moisture  
Dew Point 55 °F    
Average Humidity 66    
Maximum Humidity 90    
Minimum Humidity 45    
Precipitation  
Precipitation 0.00 in 0.11 in 2.09 in (2000)
Month to date precipitation 1.96  
Year to date precipitation 10.24  
Snow  
Snow 0.00 in 0.00 in 0.00 in ()
Month to date snowfall 0.2  
Since 1 July snowfall 50.9  
Snow Depth -    
Sea Level Pressure  
Sea Level Pressure 30.00 in    
Wind  
Wind Speed 5 mph (ESE)    
Max Wind Speed 10 mph    
Max Gust Speed -    
Visibility 10 miles    
Events      
T = Trace of Precipitation, MM = Missing Value Source: NWS Daily Summary

Daily Weather History Graph

Daily Weather History Graph

Search for Another Location

Airport:

Trip Planner

Search our weather history database for the weather conditions in past years. The results will help you decide how hot, cold, wet, or windy it might be!

Date:

Astronomy

May. 18, 2013 Rise Set
Actual Time 5:31 AM CDT 8:18 PM CDT
Civil Twilight 4:58 AM CDT 8:51 PM CDT
Nautical Twilight 4:16 AM CDT 9:33 PM CDT
Astronomical Twilight 3:28 AM CDT 10:22 PM CDT
Moon 1:11 PM CDT (5/18) 1:35 AM CDT (5/18)
Length of Visible Light 15h 53m
Length of Day
14h 47m
First Quarter, 55% of the Moon is Illuminated
May 18
First Quarter
May 24
Full
May 31
Last Quarter
Jun 8
New
Jun 16
First Quarter

Hourly Weather History & Observations

Time (CDT) Temp. Dew Point Humidity Pressure Visibility Wind Dir Wind Speed Gust Speed Precip Events Conditions
12:15 AM 53.8 °F 47.5 °F 79% 30.05 in 10.0 mi NE 4.6 mph - N/A   Clear
12:35 AM 52.5 °F 47.7 °F 84% 30.05 in 10.0 mi NE 3.5 mph - N/A   Clear
12:55 AM 52.3 °F 48.9 °F 88% 30.05 in 10.0 mi NNE 5.8 mph - N/A   Clear
1:15 AM 52.0 °F 49.3 °F 90% 30.05 in 10.0 mi NNE 4.6 mph - N/A   Clear
1:35 AM 53.6 °F 49.6 °F 86% 30.06 in 10.0 mi NNE 5.8 mph - N/A   Mostly Cloudy
1:55 AM 54.0 °F 48.9 °F 83% 30.06 in 10.0 mi NNE 4.6 mph - N/A   Overcast
2:15 AM 54.5 °F 47.8 °F 78% 30.06 in 10.0 mi East 4.6 mph - N/A   Overcast
2:35 AM 54.7 °F 47.7 °F 77% 30.06 in 10.0 mi NE 3.5 mph - N/A   Overcast
2:55 AM 55.4 °F 46.2 °F 71% 30.06 in 10.0 mi ENE 4.6 mph - N/A   Overcast
3:15 AM 55.0 °F 46.9 °F 74% 30.06 in 10.0 mi Calm Calm - N/A   Overcast
3:35 AM 55.0 °F 46.8 °F 74% 30.05 in 10.0 mi Calm Calm - N/A   Overcast
3:55 AM 54.7 °F 47.8 °F 78% 30.05 in 10.0 mi ENE 3.5 mph - N/A   Overcast
4:15 AM 55.0 °F 47.3 °F 75% 30.05 in 10.0 mi ENE 3.5 mph - N/A   Overcast
4:35 AM 55.4 °F 46.9 °F 73% 30.04 in 10.0 mi East 3.5 mph - N/A   Overcast
4:55 AM 55.4 °F 46.8 °F 73% 30.04 in 10.0 mi East 4.6 mph - N/A   Overcast
5:15 AM 55.0 °F 46.8 °F 74% 30.03 in 10.0 mi Calm Calm - N/A   Overcast
5:35 AM 54.5 °F 47.3 °F 77% 30.04 in 10.0 mi ESE 3.5 mph - N/A   Overcast
5:55 AM 54.1 °F 46.9 °F 77% 30.03 in 10.0 mi East 3.5 mph - N/A   Mostly Cloudy
6:15 AM 54.7 °F 46.8 °F 75% 30.04 in 10.0 mi East 3.5 mph - N/A   Scattered Clouds
6:35 AM 55.0 °F 47.8 °F 77% 30.05 in 10.0 mi Calm Calm - N/A   Clear
6:55 AM 56.1 °F 48.2 °F 75% 30.05 in 10.0 mi Calm Calm - N/A   Mostly Cloudy
7:15 AM 57.4 °F 49.1 °F 74% 30.06 in 10.0 mi ESE 3.5 mph - N/A   Overcast
7:35 AM 58.1 °F 49.5 °F 73% 30.05 in 10.0 mi East 3.5 mph - N/A   Overcast
7:55 AM 58.1 °F 49.6 °F 73% 30.05 in 10.0 mi East 3.5 mph - N/A   Overcast
8:15 AM 59.2 °F 50.5 °F 73% 30.05 in 10.0 mi ESE 4.6 mph - N/A   Mostly Cloudy
8:35 AM 60.4 °F 52.0 °F 74% 30.04 in 10.0 mi East 4.6 mph - N/A   Scattered Clouds
8:55 AM 62.4 °F 52.9 °F 71% 30.04 in 10.0 mi East 3.5 mph - N/A   Clear
9:15 AM 63.5 °F 53.6 °F 70% 30.04 in 10.0 mi ESE 5.8 mph - N/A   Scattered Clouds
9:35 AM 65.3 °F 55.0 °F 69% 30.05 in 10.0 mi ESE 5.8 mph - N/A   Scattered Clouds
9:55 AM 66.0 °F 55.9 °F 70% 30.05 in 10.0 mi East 5.8 mph - N/A   Clear
10:15 AM 67.3 °F 57.0 °F 70% 30.05 in 7.0 mi ESE 4.6 mph - N/A   Scattered Clouds
10:35 AM 68.0 °F 57.2 °F 68% 30.06 in 7.0 mi Calm Calm - N/A   Mostly Cloudy
10:55 AM 69.4 °F 58.1 °F 67% 30.06 in 7.0 mi East 3.5 mph - N/A   Scattered Clouds
11:15 AM 70.3 °F 58.6 °F 66% 30.05 in 7.0 mi East 3.5 mph - N/A   Scattered Clouds
11:35 AM 72.3 °F 60.1 °F 65% 30.05 in 7.0 mi Calm Calm - N/A   Scattered Clouds
11:55 AM 73.0 °F 61.2 °F 66% 30.05 in 7.0 mi SE 5.8 mph - N/A   Clear
12:15 PM 73.4 °F 61.2 °F 65% 30.03 in 7.0 mi SE 3.5 mph - N/A   Clear
12:35 PM 74.3 °F 61.0 °F 63% 30.03 in 7.0 mi Calm Calm - N/A   Scattered Clouds
12:55 PM 75.6 °F 61.3 °F 61% 30.02 in 7.0 mi ESE 5.8 mph - N/A   Mostly Cloudy
1:15 PM 76.8 °F 62.4 °F 61% 30.01 in 7.0 mi ESE 8.1 mph - N/A   Mostly Cloudy
1:35 PM 75.9 °F 61.7 °F 61% 30.00 in 10.0 mi ESE 5.8 mph - N/A   Mostly Cloudy
2:15 PM 77.2 °F 62.4 °F 60% 30.00 in 10.0 mi ESE 3.5 mph - N/A   Mostly Cloudy
2:35 PM 77.5 °F 59.9 °F 54% 29.99 in 10.0 mi Calm Calm - N/A   Overcast
2:55 PM 79.9 °F 56.8 °F 45% 29.98 in 10.0 mi SSE 9.2 mph - N/A   Overcast
3:15 PM 78.8 °F 57.0 °F 47% 29.97 in 10.0 mi South 5.8 mph - N/A   Overcast
3:35 PM 79.5 °F 58.1 °F 48% 29.96 in 10.0 mi SSE 10.4 mph - N/A   Overcast
3:55 PM 78.1 °F 57.4 °F 49% 29.96 in 10.0 mi SE 10.4 mph - N/A   Overcast
4:15 PM 76.5 °F 60.4 °F 58% 29.96 in 10.0 mi ESE 10.4 mph - N/A   Overcast
4:35 PM 77.4 °F 59.2 °F 53% 29.96 in 10.0 mi SE 10.4 mph - N/A   Overcast
4:55 PM 77.5 °F 59.7 °F 54% 29.95 in 10.0 mi ESE 10.4 mph - N/A   Overcast
5:15 PM 78.6 °F 60.1 °F 53% 29.95 in 10.0 mi ESE 6.9 mph - N/A   Mostly Cloudy
5:35 PM 78.8 °F 59.5 °F 52% 29.94 in 10.0 mi ESE 10.4 mph - N/A   Scattered Clouds
5:55 PM 78.8 °F 60.1 °F 53% 29.94 in 10.0 mi SE 6.9 mph - N/A   Clear
6:15 PM 78.8 °F 59.0 °F 51% 29.94 in 10.0 mi SSE 8.1 mph - N/A   Clear
6:35 PM 79.0 °F 59.0 °F 50% 29.93 in 10.0 mi SE 9.2 mph - N/A   Scattered Clouds
6:55 PM 78.6 °F 56.3 °F 46% 29.93 in 10.0 mi South 10.4 mph - N/A   Clear
7:15 PM 78.1 °F 56.3 °F 47% 29.94 in 10.0 mi SSE 8.1 mph - N/A   Clear
7:35 PM 77.2 °F 56.5 °F 49% 29.94 in 10.0 mi SSE 5.8 mph - N/A   Clear
7:55 PM 76.3 °F 56.7 °F 51% 29.94 in 10.0 mi SSE 5.8 mph - N/A   Clear
8:15 PM 75.0 °F 57.2 °F 54% 29.94 in 10.0 mi SSE 5.8 mph - N/A   Scattered Clouds
8:35 PM 73.9 °F 57.2 °F 56% 29.94 in 10.0 mi SSE 4.6 mph - N/A   Mostly Cloudy
8:55 PM 74.1 °F 57.6 °F 56% 29.94 in 10.0 mi SE 3.5 mph - N/A   Mostly Cloudy
9:15 PM 72.3 °F 57.9 °F 60% 29.94 in 10.0 mi SE 4.6 mph - N/A   Scattered Clouds
9:35 PM 71.1 °F 58.1 °F 63% 29.95 in 10.0 mi East 4.6 mph - N/A   Clear
9:55 PM 69.8 °F 59.4 °F 69% 29.95 in 10.0 mi Calm Calm - N/A   Mostly Cloudy
10:15 PM 68.9 °F 60.3 °F 74% 29.94 in 10.0 mi ESE 6.9 mph - N/A   Scattered Clouds
10:35 PM 68.9 °F 60.3 °F 74% 29.94 in 10.0 mi ESE 8.1 mph - N/A   Clear
10:55 PM 69.1 °F 60.1 °F 73% 29.93 in 10.0 mi ESE 8.1 mph - N/A   Clear
11:15 PM 68.9 °F 59.5 °F 72% 29.93 in 10.0 mi SE 9.2 mph - N/A   Clear
11:35 PM 68.9 °F 59.0 °F 71% 29.93 in 10.0 mi SE 8.1 mph - N/A   Clear
11:55 PM 68.0 °F 59.0 °F 73% 29.93 in 10.0 mi SE 5.8 mph - N/A   Clear